This is the latest recevied weather packets stored in our database for station/object RUSSARO. If no packets are shown the sender has not sent any weather packets the latest 10 day(s).
| Time | Temp. | Humidity | Pressure | Rain* | Wind** | Luminosity | Snow |
|---|---|---|---|---|---|---|---|
| 1777948038 | 5.56° C | 87% | 1001.7 hPa | 0 mm | - | - | - |
| 1777946838 | 5.56° C | 90% | 1001.7 hPa | 0 mm | - | - | - |
| 1777945638 | 5.56° C | 94% | 1002.1 hPa | 0 mm | - | - | - |
| 1777944438 | 5° C | 96% | 1002.3 hPa | 0 mm | - | - | - |
| 1777943238 | 5° C | 96% | 1002.3 hPa | 0 mm | - | - | - |
| 1777942038 | 5° C | 97% | 1002.5 hPa | 0 mm | - | - | - |
| 1777940837 | 5° C | 98% | 1002.5 hPa | 0 mm | - | - | - |
| 1777939638 | 5° C | 99% | 1002.7 hPa | 0 mm | - | - | - |
| 1777938438 | 4.44° C | 100% | 1002.8 hPa | 0 mm | - | - | - |
| 1777937238 | 4.44° C | 100% | 1003.1 hPa | 0 mm | - | - | - |
| 1777936038 | 3.89° C | 100% | 1003.1 hPa | 0 mm | - | - | - |
| 1777934838 | 4.44° C | 100% | 1003.2 hPa | 0 mm | - | - | - |
| 1777933637 | 4.44° C | 100% | 1003.1 hPa | 0 mm | - | - | - |
| 1777932438 | 4.44° C | 100% | 1003.2 hPa | 0 mm | - | - | - |
| 1777931238 | 5° C | 100% | 1003.3 hPa | 0 mm | - | - | - |
| 1777930037 | 5° C | 100% | 1003.5 hPa | 0 mm | - | - | - |
| 1777928837 | 4.44° C | 100% | 1003.5 hPa | 0 mm | - | - | - |
| 1777927637 | 4.44° C | 100% | 1003.5 hPa | 0 mm | - | - | - |
| 1777926437 | 4.44° C | 100% | 1003.4 hPa | 0 mm | - | - | - |
| 1777925237 | 4.44° C | 100% | 1003.2 hPa | 0 mm | - | - | - |
| 1777924037 | 4.44° C | 100% | 1003.3 hPa | 0 mm | - | - | - |
| 1777922837 | 4.44° C | 100% | 1003.6 hPa | 0 mm | - | - | - |
| 1777921637 | 4.44° C | 100% | 1003.5 hPa | 0 mm | - | - | - |
| 1777920436 | 5° C | 100% | 1003.4 hPa | 0 mm | - | - | - |
| 1777919237 | 5.56° C | 99% | 1003.4 hPa | 0 mm | - | - | - |
* Rain latest hour (hover to see other rain measurements)
** Current wind speed in m/s (hover to see current wind gust speed)